Flag for Netherlands Weather past 2 weeks in Amsterdam, Netherlands

Now
34 °F

Light snow. Partly cloudy.


Feels Like: 23 °F
Forecast: 27 / 36 °F
Wind: 17 mph from Northeast

Location: Amsterdam Schiphol Airport

Current Time: Dec 27, 2014 at 5:42:43 PM

Latest Report: Dec 27, 2014 at 4:55 PM


Visibility: 2 mi

Pressure: 29.59 "Hg

Humidity: 93%

Dew point: 32 °F

Location of AmsterdamLocation

Historic Weather in Amsterdam — Graph

°F

Amsterdam temperature yesterday

Maximum temperature yesterday: 41 °F (at 1:25 PM)
Minimum temperature yesterday: 30 °F (at 8:55 AM)
Average temperature yesterday: 37 °F

Past Weeks' High & Low Weather Summary

 TemperatureHumidityPressure
High55 °F (Dec 18, 12:55 PM)100% (Dec 13, 9:55 PM)30.39 "Hg (Dec 13, 9:55 PM)
Low30 °F (Dec 26, 8:55 AM)66% (Dec 12, 9:25 PM)29.33 "Hg (Dec 12, 4:25 PM)
Average45 °F85%29.93 "Hg
* Reported Dec 12 4:25 PM — Dec 27 4:25 PM, Amsterdam, Weather by CustomWeather, © 2014

Note: Actual official high and low records may vary slightly from our data, if they occured in-between our weather recording intervals... More about our weather records

Advertising

Amsterdam weather history for previous 24 hours

 ConditionsComfort  
Time TempWeatherWind HumidityBarometerVisibility
4:25 PM
Dec 27
34 °FLight rain. Broken clouds.16 mph93%29.59 "Hg2 mi
3:55 PM34 °FLight rain. Mostly cloudy.16 mph93%29.59 "Hg2 mi
3:25 PM36 °FSnow flurries. Partly sunny.17 mph87%29.56 "Hg2 mi
2:55 PM36 °FLight rain. Fog.23 mph87%29.56 "Hg3 mi
2:25 PM36 °FLight rain. Partly sunny.23 mph87%29.53 "Hg5 mi
1:55 PM36 °FLight rain. Partly sunny.21 mph93%29.53 "Hg6 mi
1:25 PM36 °FLight rain. Partly sunny.22 mph93%29.53 "Hg5 mi
12:55 PM36 °FDrizzle. Partly sunny.23 mph93%29.53 "Hg5 mi
12:25 PM36 °FDrizzle. Partly sunny.23 mph93%29.53 "Hg5 mi
11:55 AM36 °FLight rain. Partly sunny.23 mph93%29.50 "Hg5 mi
11:25 AM36 °FLight rain. Partly sunny.23 mph93%29.50 "Hg5 mi
10:55 AM36 °FLight rain. Partly sunny.23 mph93%29.50 "Hg5 mi
10:25 AM36 °FLight rain. Partly sunny.22 mph93%29.47 "Hg4 mi
9:55 AM36 °FLight rain. Partly sunny.25 mph93%29.47 "HgN/A
9:25 AM36 °FLight rain. Broken clouds.24 mph93%29.47 "HgN/A
8:55 AM36 °FDrizzle. Broken clouds.24 mph93%29.45 "Hg6 mi
8:25 AM36 °FLight rain. Partly cloudy.25 mph93%29.45 "Hg5 mi
7:55 AM34 °FLight rain. Partly cloudy.24 mph100%29.45 "Hg3 mi
7:25 AM34 °FLight rain. Partly cloudy.24 mph93%29.45 "Hg4 mi
6:55 AM34 °FLight rain. Partly cloudy.24 mph93%29.47 "Hg2 mi
6:25 AM34 °FSnow. Overcast.24 mph93%29.47 "Hg1 mi
5:55 AM34 °FLight rain. Mostly cloudy.22 mph93%29.50 "Hg1 mi
5:25 AM34 °FRain. Mostly cloudy.22 mph93%29.53 "Hg1 mi
4:25 AM36 °FLight rain. Overcast.22 mph93%29.59 "Hg3 mi
3:55 AM36 °FLight rain. Partly cloudy.20 mph93%29.65 "Hg4 mi
3:25 AM37 °FLight rain. Partly cloudy.20 mph87%29.68 "Hg4 mi
2:55 AM37 °FLight rain. Overcast.20 mph87%29.71 "Hg4 mi
2:25 AM37 °FLight rain. Partly cloudy.17 mph87%29.77 "Hg5 mi
1:55 AM37 °FPartly cloudy.16 mph87%29.80 "HgN/A
1:25 AM37 °FPassing clouds.16 mph87%29.83 "HgN/A
12:55 AM37 °FPartly cloudy.16 mph93%29.89 "Hg6 mi
12:25 AM37 °FPartly cloudy.15 mph93%29.92 "Hg6 mi
11:55 PM
Dec 26
37 °FPartly cloudy.16 mph93%29.95 "Hg4 mi
11:25 PM37 °FPassing clouds.15 mph93%29.95 "Hg4 mi
10:55 PM37 °FFog.13 mph93%30.01 "Hg3 mi
9:55 PM37 °FFog.13 mph93%30.07 "Hg2 mi
9:25 PM37 °FFog.13 mph100%30.09 "Hg2 mi
8:55 PM39 °FFog.14 mph93%30.12 "Hg3 mi
8:25 PM39 °FFog.12 mph93%30.12 "Hg3 mi
7:55 PM39 °FFog.13 mph93%30.15 "Hg3 mi
7:25 PM39 °FPassing clouds.13 mph93%30.18 "Hg4 mi
6:55 PM39 °FPassing clouds.10 mph93%30.18 "Hg5 mi
6:25 PM39 °FPassing clouds.10 mph93%30.21 "HgN/A
5:55 PM39 °FPassing clouds.10 mph93%30.24 "HgN/A
5:25 PM39 °FPassing clouds.9 mph93%30.24 "Hg6 mi
Weather by CustomWeather, © 2014

See weather overviewHow to use our weather pages